Weather History for Seldovia, AK

Change the Weather History Date:

Thursday, November 8, 2012

  Actual Average (PAHO) Record (PAHO)
Temperature  
Mean Temperature 28 °F -  
Max Temperature 34 °F 37 °F 50 °F (1979)
Min Temperature 21 °F 25 °F 4 °F (1990)
Degree Days  
Heating Degree Days 38    
Moisture  
Dew Point 28 °F    
Average Humidity 90    
Maximum Humidity 96    
Minimum Humidity 78    
Precipitation  
Precipitation 0.07 in - - ()
Sea Level Pressure  
Sea Level Pressure 30.20 in    
Wind  
Wind Speed 0 mph (South)    
Max Wind Speed 4 mph    
Max Gust Speed -    
Visibility 7 miles    
Events Snow    
Averages and records for this station are not official NWS values.
T = Trace of Precipitation, MM = Missing Value Source: NWS Daily Summary

Daily Weather History Graph

Daily Weather History Graph

Search for Another Location

Airport:

Trip Planner

Search our weather history database for the weather conditions in past years. The results will help you decide how hot, cold, wet, or windy it might be!

Date:

Astronomy

Nov. 08, 2012 Rise Set
Actual Time 8:46 AM AKST 4:54 PM AKST
Civil Twilight 7:59 AM AKST 5:40 PM AKST
Nautical Twilight 7:09 AM AKST 6:30 PM AKST
Astronomical Twilight 6:22 AM AKST 7:17 PM AKST
Moon 1:31 AM AKST (11/8) 2:52 PM AKST (11/8)
Length of Visible Light 9h 40m
Length of Day
8h 08m
Waning Crescent, 31% of the Moon is Illuminated
Nov 8
Waning Crescent
Nov 13
New
Nov 20
First Quarter
Nov 28
Full
Dec 6
Last Quarter

Hourly Weather History & Observations

Time (AKST) Temp. Windchill Dew Point Humidity Pressure Visibility Wind Dir Wind Speed Gust Speed Precip Events Conditions
12:53 AM 21.9 °F - 18.0 °F 85% 30.32 in 10.0 mi Calm Calm - N/A   Clear
1:53 AM 23.0 °F - 18.0 °F 81% 30.32 in 10.0 mi Calm Calm - N/A   Scattered Clouds
3:53 AM 25.0 °F - 19.9 °F 81% 30.31 in 10.0 mi Calm Calm - N/A   Overcast
4:53 AM 26.1 °F 21.9 °F 21.0 °F 81% 30.30 in 10.0 mi South 3.5 mph - N/A   Overcast
5:53 AM 28.0 °F - 21.9 °F 78% 30.28 in 10.0 mi Calm Calm - N/A   Overcast
6:53 AM 28.0 °F - 23.0 °F 81% 30.26 in 10.0 mi Calm Calm - N/A   Overcast
7:53 AM 28.0 °F - 24.1 °F 85% 30.25 in 3.0 mi Calm Calm - 0.00 in Snow Light Snow
8:53 AM 28.9 °F - 26.1 °F 89% 30.24 in 10.0 mi Calm Calm - 0.00 in   Overcast
9:27 AM 30.2 °F 26.7 °F 26.6 °F 86% 30.24 in 10.0 mi SSW 3.5 mph - N/A   Overcast
9:53 AM 30.0 °F - 27.0 °F 88% 30.24 in 10.0 mi Calm Calm - N/A   Overcast
10:33 AM 30.2 °F - 28.4 °F 93% 30.24 in 2.5 mi Calm Calm - 0.00 in Snow Light Snow
10:53 AM 30.9 °F - 28.9 °F 92% 30.24 in 2.5 mi Calm Calm - 0.00 in Snow Light Snow
11:08 AM 30.2 °F - 28.4 °F 93% 30.24 in 2.5 mi Calm Calm - 0.00 in Snow Light Snow
11:53 AM 32.0 °F 28.7 °F 30.0 °F 92% 30.24 in 3.0 mi South 3.5 mph - 0.00 in   Overcast
12:53 PM 33.1 °F - 30.9 °F 92% 30.22 in 6.0 mi Calm Calm - 0.01 in   Overcast
1:05 PM 33.8 °F - 30.2 °F 87% 30.22 in 8.0 mi Calm Calm - N/A   Overcast
1:34 PM 33.8 °F - 30.2 °F 87% 30.21 in 9.0 mi Calm Calm - N/A   Overcast
1:43 PM 33.8 °F - 30.2 °F 87% 30.21 in 9.0 mi Calm Calm - N/A   Overcast
1:53 PM 34.0 °F - 32.0 °F 92% 30.22 in 10.0 mi Calm Calm - N/A   Overcast
2:53 PM 34.0 °F - 32.0 °F 92% 30.20 in 5.0 mi Calm Calm - 0.00 in Snow Light Snow
3:53 PM 34.0 °F - 32.0 °F 92% 30.19 in 10.0 mi Calm Calm - 0.00 in   Overcast
4:53 PM 33.1 °F - 32.0 °F 96% 30.17 in 10.0 mi Calm Calm - N/A   Overcast
5:53 PM 33.1 °F - 30.9 °F 92% 30.16 in 10.0 mi Calm Calm - N/A   Overcast
6:53 PM 32.0 °F - 30.9 °F 96% 30.15 in 10.0 mi Calm Calm - N/A   Overcast
7:53 PM 32.0 °F - 30.9 °F 96% 30.14 in 10.0 mi Calm Calm - N/A   Overcast
8:53 PM 32.0 °F - 30.9 °F 96% 30.12 in 5.0 mi Calm Calm - 0.00 in Snow Light Snow
9:15 PM 32.0 °F - 30.2 °F 93% 30.12 in 3.0 mi Calm Calm - 0.00 in Snow Light Snow
9:23 PM 32.0 °F - 30.2 °F 93% 30.12 in 2.5 mi Calm Calm - 0.00 in Snow Light Snow
9:30 PM 32.0 °F - 30.2 °F 93% 30.12 in 2.5 mi Calm Calm - 0.00 in Snow Light Snow
9:53 PM 33.1 °F - 30.9 °F 92% 30.12 in 3.0 mi Calm Calm - 0.01 in Snow Light Snow
10:04 PM 33.8 °F - 30.2 °F 87% 30.12 in 2.5 mi Calm Calm - 0.00 in Snow Light Snow
10:53 PM 32.0 °F - 30.9 °F 96% 30.11 in 1.5 mi Calm Calm - 0.02 in Snow Light Snow
11:42 PM 32.0 °F - 30.2 °F 93% 30.09 in 2.0 mi Calm Calm - 0.02 in Snow Light Snow
11:53 PM 32.0 °F - 30.9 °F 96% 30.09 in 2.0 mi Calm Calm - 0.03 in Snow Light Snow